Regional Weather Roundup
Issued by NWS

Home | Current Version | Previous Version | Graphics & Text | Print | Product List | Glossary On
Versions: 1 2 3 4 5 6 7 8 9 10 11 12 13 14 15 16 17 18 19 20 21 22 23 24 25 26 27 28 29 30 31 32 33 34 35 36 37 38 39 40 41 42 43 44 45 46 47 48 49 50
000
ASUS43 KMKX 170421
RWRWI

WISCONSIN REGIONAL WEATHER ROUNDUP
NATIONAL WEATHER SERVICE MILWAUKEE/SULLIVAN WI
1100 PM CDT MON OCT 16 2017

NOTE: "FAIR" INDICATES FEW OR NO CLOUDS BELOW 12,000 FEET WITH NO
SIGNIFICANT WEATHER AND/OR OBSTRUCTIONS TO VISIBILITY.

WIZ001-002-006>008-014>016-023>028-170500-
NORTHWEST WISCONSIN

CITY           SKY/WX    TMP DP  RH WIND       PRES   REMARKS
SUPERIOR ARPT  PTCLDY    54  37  54 SW9       29.88F
ASHLAND        CLEAR     55  35  47 SW15      29.90F
HAYWARD        CLEAR     50  36  58 S8        29.94F
SIREN          CLEAR     55  36  50 S8        29.93F
CUMBERLAND     CLEAR     45  34  65 S5        29.96F
RICE LAKE      CLEAR     45  36  69 E3        29.99S
CHETEK         CLEAR     46  38  74 SE7       29.99S
LADYSMITH      CLEAR     46  36  68 S5        30.00F
EAU CLAIRE     CLEAR     48  37  65 S7        29.99F
MENOMONIE      CLEAR     53  37  55 S7        29.99F
NEW RICHMOND   CLEAR     51  36  56 S7        29.97S
OSCEOLA        CLEAR     52  38  58 S6        29.97F
$$

WIZ003>005-009-010-017-018-170500-
NORTH CENTRAL WISCONSIN

CITY           SKY/WX    TMP DP  RH WIND       PRES   REMARKS
MANITOWISH WTR CLEAR     38  36  91 S3        29.96F
ARBOR VITAE    CLEAR     46  36  68 S8        29.98F
WOODRUFF       CLEAR     46  36  68 S8        29.98F
RHINELANDER    CLEAR     48  35  60 SW9       30.01F
EAGLE RIVER    CLEAR     45  33  62 SW5       29.99F
LAND O LAKES   CLEAR     43  34  71 CALM      30.00S
PHILLIPS       CLEAR     45  35  66 S6        29.98F
TOMAHAWK       CLEAR     42  34  71 CALM      30.02F
MEDFORD        CLEAR     49  35  58 S10G17    30.02S
MERRILL        CLEAR     49  35  58 SW7       30.04S
$$

WIZ029-030-035-036-043>047-170500-
CENTRAL WISCONSIN

CITY           SKY/WX    TMP DP  RH WIND       PRES   REMARKS
WAUSAU         CLEAR     48  38  68 S6        30.04F
MOSINEE        CLEAR     45  37  76 S10       30.06F
MARSHFIELD     CLEAR     44  34  67 S7        30.04F
STEVENS POINT  CLEAR     46  35  66 S9        30.07F
WAUPACA        CLEAR     46  37  72 S5        30.09F
WAUTOMA        CLEAR     39  38  96 CALM      30.11F
WISC RAPIDS    CLEAR     48  37  65 S9        30.08F
CAMP DOUGLAS   NOT AVBL
$$

WIZ011>013-019>022-031-037>040-048>050-170500-
NORTHEAST WISCONSIN

CITY           SKY/WX    TMP DP  RH WIND       PRES   REMARKS
ANTIGO         CLEAR     44  36  73 SW9       30.05F
SHAWANO        CLEAR     48  38  68 SW3       30.07S
OCONTO         CLEAR     48  37  67 SW5       30.06F
STURGEON BAY   CLEAR     48  39  71 S10       30.08F
GREEN BAY      CLEAR     48  43  82 S9        30.09F
MANITOWOC      CLEAR     47  37  68 SW6       30.12F
APPLETON       PTCLDY    48  36  61 SW12      30.08F
CLINTONVILLE   CLEAR     45  37  76 S5        30.07F
OSHKOSH        CLEAR     47  39  74 S9        30.11F
$$

WIZ032>034-041-042-053>061-170500-
SOUTHWEST WISCONSIN

CITY           SKY/WX    TMP DP  RH WIND       PRES   REMARKS
LA CROSSE      CLEAR     55  41  59 S15       30.05F
SPARTA         CLOUDY    53  37  54 SW3       30.07F
VIROQUA        CLEAR     51  38  60 CALM      30.10S
BOSCOBEL       PTCLDY    43  39  86 CALM      30.12F
PRAIRIE DU CHI CLEAR     55  37  50 CALM      30.11F
PLATTEVILLE    CLEAR     48  39  71 S7        30.15F
$$

WIZ056-057-062-063-064-067-068-170500-
SOUTH CENTRAL WISCONSIN

CITY           SKY/WX    TMP DP  RH WIND       PRES   REMARKS
REEDSBURG      CLEAR     49  36  58 S6        30.11F
BARABOO/DELLS  CLEAR     49  35  57 SW8       30.11F
LONE ROCK      CLEAR     45  38  76 CALM      30.13F
MINERAL POINT  CLOUDY    50  37  62 S7        30.15S
MADISON        CLEAR     51  37  58 SW3       30.14F
MIDDLETON      CLEAR     51  36  56 SW7       30.14S
WATERTOWN      CLEAR     45  39  78 S5        30.15S
MONROE         CLEAR     48  36  61 SW13      30.16S
JANESVILLE     CLEAR     48  36  61 S3        30.17S
$$

WIZ051-052-058>065-066-070>072-170500-
SOUTHEAST WISCONSIN

CITY           SKY/WX    TMP DP  RH WIND       PRES   REMARKS
MILWAUKEE      PTCLDY    50  37  61 S6        30.17S
WAUKESHA       CLEAR     45  36  70 SW6       30.17F
MILWAUKEE/TIMM CLEAR     43  34  70 S3        30.17F
RACINE         CLEAR     49  38  65 SW7       30.19F
BURLINGTON     CLEAR     42  38  87 CALM      30.17F
KENOSHA        CLEAR     47  37  68 SW7       30.19S
FOND DU LAC    CLEAR     49  37  63 SW6       30.12F
SHEBOYGAN      CLEAR     43  39  86 S7        30.13F
WEST BEND      CLEAR     43  37  81 S5        30.15S
JUNEAU         CLEAR     46  37  71 S6        30.15S
$$

LSZ147-162-170500-
LAKE SUPERIOR

STATION/POSITION TIME  TEMP    WIND        PRES    WAVE
                       AIR SEA DIR/SP/G            HT/PER
                 (UTC) (F)     (DEG/KT/KT) (MB)    (FT/S)
W MID LAKE BUOY  0350   55 53              1010.7F   3/ 4
DEVILS ISLAND    0400   59     220/ 18/ 22 1010.8F
SAXON HARBOR     0330   56     200/ 11/ 18 1012.2F
$$

LMZ867-665-643>646-170500-
LAKE MICHIGAN

STATION/POSITION TIME  TEMP    WIND        PRES    WAVE
                       AIR SEA DIR/SP/G            HT/PER
                 (UTC) (F)     (DEG/KT/KT) (MB)    (FT/S)
S GREEN BAY BUOY 0400   56 58  200/ 17/ 23 1017.6
N MID LAKE BUOY  0350   58 60  220/ 23/ 29 1017.7F   6/ 6
NORTHPORT PIER   0340   49     170/  2/  6 1017.6F
KEWAUNEE LAKESHO 0354   50     210/  8/ 11 1018.1F
SHEBOYGAN LAKESH 0400   52     210/ 12/ 13 1020.3F
PORT WASHINGTON  0340   50     260/  4/  6 1022.0S
MILWAUKEE LAKESH 0300   54     210/  5/  6   N/A
S MID LAKE BUOY  0350   60 62  260/ 16/ 17 1022.4R   2/ 4
KENOSHA   LAKESH 0400   52     210/  8/ 11 1022.0
$$

TC  - TEMPERATURE IN CELSIUS
VSB - VISIBILITY IN STATUTE MILES
WCI - WIND CHILL INDEX
HX  - HEAT INDEX





USA.gov is the U.S. government's official web portal to all federal, state and local government web resources and services.